Volver al catálogo

STARLINK-35695

ActivoComunicacionesVLEO
NORAD 66558·PAYLOAD·🇺🇸 United States

Lanzado Nov 21, 2025 desde Cape Canaveral Space Force Station

Loading…

Próximos Pases (próximas 24 horas)

TLE

ActualizadoSource: CelesTrak SupGP

Época: Sep 15, 2026, 02:50 UTC

1 66558C 25268B   26258.11854167  .00033967  00000+0  12302-2 0  2584
2 66558  43.0016 357.6475 0001309 263.0164 185.6514 15.27565484    16

Sigue STARLINK-35695 en tiempo real con AllMySat

Download on the App Store